Time,TemperatureF,DewpointF,PressureIn,WindDirection,WindDirectionDegrees,WindSpeedMPH,WindSpeedGustMPH,Humidity,HourlyPrecipIn,Conditions,Clouds,dailyrainin,SoftwareType,DateUTC
2013-06-22 00:01:00,64.4,56.3,30.29,NW,315,5.0,8.0,75,0.00,,,0.00,meteohub,2013-06-22 04:01:00,
2013-06-22 00:02:00,64.4,56.3,30.28,NW,315,5.0,8.0,75,0.00,,,0.00,meteohub,2013-06-22 04:02:00,
2013-06-22 00:05:00,64.4,56.3,30.28,NW,315,5.0,8.0,75,0.00,,,0.00,meteohub,2013-06-22 04:05:00,
2013-06-22 00:10:00,64.4,56.3,30.28,NW,315,5.0,8.0,75,0.00,,,0.00,meteohub,2013-06-22 04:10:00,
2013-06-22 00:15:00,64.4,56.3,30.28,NW,315,5.0,5.0,75,0.00,,,0.00,meteohub,2013-06-22 04:15:00,
2013-06-22 00:20:00,64.4,56.3,30.28,WNW,293,7.0,7.0,75,0.00,,,0.00,meteohub,2013-06-22 04:20:00,
2013-06-22 00:25:00,64.2,56.1,30.28,WNW,293,6.0,7.0,75,0.00,,,0.00,meteohub,2013-06-22 04:25:00,
2013-06-22 00:30:00,64.2,56.1,30.28,West,270,5.0,7.0,75,0.00,,,0.00,meteohub,2013-06-22 04:30:00,
2013-06-22 00:36:00,64.2,56.1,30.28,West,270,6.0,7.0,75,0.00,,,0.00,meteohub,2013-06-22 04:36:00,
2013-06-22 00:41:00,64.2,56.1,30.28,WNW,293,4.0,8.0,75,0.00,,,0.00,meteohub,2013-06-22 04:41:00,
2013-06-22 00:46:00,64.0,55.9,30.28,West,270,6.0,8.0,75,0.00,,,0.00,meteohub,2013-06-22 04:46:00,
2013-06-22 00:51:00,64.0,55.9,30.28,West,270,8.0,8.0,75,0.00,,,0.00,meteohub,2013-06-22 04:51:00,
2013-06-22 00:56:00,64.0,55.9,30.28,NW,315,5.0,8.0,75,0.00,,,0.00,meteohub,2013-06-22 04:56:00,
2013-06-22 01:01:00,63.9,55.8,30.28,WNW,293,6.0,8.0,75,0.00,,,0.00,meteohub,2013-06-22 05:01:00,
2013-06-22 01:06:00,63.9,55.8,30.27,West,270,6.0,8.0,75,0.00,,,0.00,meteohub,2013-06-22 05:06:00,
2013-06-22 01:11:00,63.9,55.8,30.27,WNW,293,7.0,7.0,75,0.00,,,0.00,meteohub,2013-06-22 05:11:00,
2013-06-22 01:16:00,63.9,55.8,30.27,NW,315,4.0,7.0,75,0.00,,,0.00,meteohub,2013-06-22 05:16:00,
2013-06-22 01:21:00,63.7,55.6,30.27,NW,315,6.0,7.0,75,0.00,,,0.00,meteohub,2013-06-22 05:21:00,
2013-06-22 01:27:00,63.7,55.6,30.28,SSW,203,5.0,7.0,75,0.00,,,0.00,meteohub,2013-06-22 05:27:00,
2013-06-22 01:32:00,63.9,56.1,30.28,West,270,6.0,8.0,76,0.00,,,0.00,meteohub,2013-06-22 05:32:00,
2013-06-22 01:37:00,63.7,55.9,30.28,West,270,7.0,8.0,76,0.00,,,0.00,meteohub,2013-06-22 05:37:00,
2013-06-22 01:42:00,63.7,55.9,30.28,NW,315,6.0,7.0,76,0.00,,,0.00,meteohub,2013-06-22 05:42:00,
2013-06-22 01:47:00,63.5,55.8,30.28,NW,315,6.0,7.0,76,0.00,,,0.00,meteohub,2013-06-22 05:47:00,
2013-06-22 01:52:00,63.5,55.8,30.28,NW,315,6.0,7.0,76,0.00,,,0.00,meteohub,2013-06-22 05:52:00,
2013-06-22 01:57:00,63.5,55.8,30.28,WNW,293,9.0,9.0,76,0.00,,,0.00,meteohub,2013-06-22 05:57:00,
2013-06-22 02:02:00,63.7,55.9,30.28,NW,315,6.0,9.0,76,0.00,,,0.00,meteohub,2013-06-22 06:02:00,
2013-06-22 02:07:00,63.9,56.1,30.28,WNW,293,6.0,9.0,76,0.00,,,0.00,meteohub,2013-06-22 06:07:00,
2013-06-22 02:12:00,63.9,55.8,30.28,NW,315,8.0,9.0,75,0.00,,,0.00,meteohub,2013-06-22 06:12:00,
2013-06-22 02:17:00,63.9,56.1,30.28,WNW,293,6.0,8.0,76,0.00,,,0.00,meteohub,2013-06-22 06:17:00,
2013-06-22 02:22:00,63.9,56.1,30.28,WNW,293,8.0,10.0,76,0.00,,,0.00,meteohub,2013-06-22 06:22:00,
2013-06-22 02:27:00,63.9,56.1,30.28,NW,315,8.0,10.0,76,0.00,,,0.00,meteohub,2013-06-22 06:27:00,
2013-06-22 02:32:00,63.7,55.9,30.28,NW,315,11.0,11.0,76,0.00,,,0.00,meteohub,2013-06-22 06:32:00,
2013-06-22 02:37:00,63.7,55.9,30.28,WNW,293,11.0,13.0,76,0.00,,,0.00,meteohub,2013-06-22 06:37:00,
2013-06-22 02:42:00,63.7,55.9,30.28,NW,315,8.0,13.0,76,0.00,,,0.00,meteohub,2013-06-22 06:42:00,
2013-06-22 02:47:00,63.7,55.9,30.28,NW,315,9.0,13.0,76,0.00,,,0.00,meteohub,2013-06-22 06:47:00,
2013-06-22 02:52:00,63.7,56.3,30.28,WNW,293,6.0,11.0,77,0.00,,,0.00,meteohub,2013-06-22 06:52:00,
2013-06-22 02:57:00,63.7,56.3,30.28,WNW,293,8.0,10.0,77,0.00,,,0.00,meteohub,2013-06-22 06:57:00,
2013-06-22 03:02:00,63.9,56.5,30.28,WNW,293,10.0,10.0,77,0.00,,,0.00,meteohub,2013-06-22 07:02:00,
2013-06-22 03:07:00,63.7,56.3,30.26,WNW,293,7.0,10.0,77,0.00,,,0.00,meteohub,2013-06-22 07:07:00,
2013-06-22 03:12:00,63.7,56.3,30.26,WNW,293,7.0,10.0,77,0.00,,,0.00,meteohub,2013-06-22 07:12:00,
2013-06-22 03:17:00,63.7,55.9,30.26,WNW,293,8.0,10.0,76,0.00,,,0.00,meteohub,2013-06-22 07:17:00,
2013-06-22 03:22:00,63.7,55.9,30.26,NW,315,10.0,10.0,76,0.00,,,0.00,meteohub,2013-06-22 07:22:00,
2013-06-22 03:27:00,63.5,55.8,30.27,NW,315,10.0,10.0,76,0.00,,,0.00,meteohub,2013-06-22 07:27:00,
2013-06-22 03:32:00,63.5,56.1,30.27,NW,315,7.0,10.0,77,0.00,,,0.00,meteohub,2013-06-22 07:32:00,
2013-06-22 03:37:00,63.5,56.1,30.27,WNW,293,13.0,13.0,77,0.00,,,0.00,meteohub,2013-06-22 07:37:00,
2013-06-22 03:42:00,63.7,56.3,30.27,NW,315,10.0,13.0,77,0.00,,,0.00,meteohub,2013-06-22 07:42:00,
2013-06-22 03:47:00,63.7,55.9,30.27,WNW,293,13.0,13.0,76,0.00,,,0.00,meteohub,2013-06-22 07:47:00,
2013-06-22 03:52:00,63.7,55.9,30.27,West,270,11.0,13.0,76,0.00,,,0.00,meteohub,2013-06-22 07:52:00,
2013-06-22 03:57:00,63.7,55.9,30.27,NW,315,12.0,13.0,76,0.00,,,0.00,meteohub,2013-06-22 07:57:00,
2013-06-22 04:02:00,63.7,55.9,30.27,West,270,10.0,13.0,76,0.00,,,0.00,meteohub,2013-06-22 08:02:00,
2013-06-22 04:07:00,63.7,55.9,30.27,West,270,9.0,12.0,76,0.00,,,0.00,meteohub,2013-06-22 08:07:00,
2013-06-22 04:12:00,63.7,55.9,30.27,West,270,9.0,12.0,76,0.00,,,0.00,meteohub,2013-06-22 08:12:00,
2013-06-22 04:17:00,63.7,55.9,30.27,West,270,8.0,10.0,76,0.00,,,0.00,meteohub,2013-06-22 08:17:00,
2013-06-22 04:22:00,63.7,55.9,30.27,NW,315,8.0,9.0,76,0.00,,,0.00,meteohub,2013-06-22 08:22:00,
2013-06-22 04:27:00,63.7,56.3,30.27,West,270,8.0,9.0,77,0.00,,,0.00,meteohub,2013-06-22 08:27:00,
2013-06-22 04:32:00,63.7,56.3,30.27,WNW,293,10.0,10.0,77,0.00,,,0.00,meteohub,2013-06-22 08:32:00,
2013-06-22 04:37:00,63.7,57.0,30.27,NW,315,9.0,10.0,79,0.00,,,0.00,meteohub,2013-06-22 08:37:00,
2013-06-22 04:42:00,63.9,57.2,30.27,WNW,293,12.0,12.0,79,0.00,,,0.00,meteohub,2013-06-22 08:42:00,
2013-06-22 04:47:00,63.7,57.0,30.27,West,270,10.0,12.0,79,0.00,,,0.00,meteohub,2013-06-22 08:47:00,
2013-06-22 04:52:00,63.7,57.0,30.27,West,270,13.0,13.0,79,0.00,,,0.00,meteohub,2013-06-22 08:52:00,
2013-06-22 04:57:00,63.9,57.6,30.27,West,270,13.0,13.0,80,0.00,,,0.00,meteohub,2013-06-22 08:57:00,
2013-06-22 05:02:00,63.9,57.6,30.27,West,270,9.0,13.0,80,0.00,,,0.00,meteohub,2013-06-22 09:02:00,
2013-06-22 05:07:00,64.0,58.1,30.27,West,270,7.0,13.0,81,0.00,,,0.00,meteohub,2013-06-22 09:07:00,
2013-06-22 05:12:00,63.9,57.9,30.27,WNW,293,9.0,13.0,81,0.00,,,0.00,meteohub,2013-06-22 09:12:00,
2013-06-22 05:17:00,64.0,58.1,30.27,West,270,6.0,11.0,81,0.00,,,0.00,meteohub,2013-06-22 09:17:00,
2013-06-22 05:22:00,63.9,57.9,30.27,WNW,293,8.0,11.0,81,0.00,,,0.00,meteohub,2013-06-22 09:22:00,
2013-06-22 05:27:00,63.7,58.1,30.28,West,270,8.0,10.0,82,0.00,,,0.00,meteohub,2013-06-22 09:27:00,
2013-06-22 05:32:00,63.7,58.5,30.28,West,270,8.0,10.0,83,0.00,,,0.00,meteohub,2013-06-22 09:32:00,
2013-06-22 05:37:00,63.7,58.5,30.28,WSW,248,5.0,10.0,83,0.00,,,0.00,meteohub,2013-06-22 09:37:00,
2013-06-22 05:42:00,63.7,58.5,30.28,WSW,248,6.0,9.0,83,0.00,,,0.00,meteohub,2013-06-22 09:42:00,
2013-06-22 05:47:00,63.9,58.6,30.27,WNW,293,8.0,8.0,83,0.00,,,0.00,meteohub,2013-06-22 09:47:00,
2013-06-22 05:52:00,63.5,58.6,30.27,SW,225,7.0,8.0,84,0.00,,,0.00,meteohub,2013-06-22 09:52:00,
2013-06-22 05:57:00,63.7,58.8,30.27,West,270,8.0,8.0,84,0.00,,,0.00,meteohub,2013-06-22 09:57:00,
2013-06-22 06:02:00,63.7,59.0,30.27,NW,315,4.0,8.0,85,0.00,,,0.00,meteohub,2013-06-22 10:02:00,
2013-06-22 06:07:00,63.7,59.0,30.28,West,270,8.0,8.0,85,0.00,,,0.00,meteohub,2013-06-22 10:07:00,
2013-06-22 06:12:00,63.7,59.0,30.28,West,270,8.0,8.0,85,0.00,,,0.00,meteohub,2013-06-22 10:12:00,
2013-06-22 06:17:00,64.0,59.4,30.28,West,270,6.0,8.0,85,0.00,,,0.00,meteohub,2013-06-22 10:17:00,
2013-06-22 06:22:00,64.0,59.4,30.28,NW,315,5.0,9.0,85,0.00,,,0.00,meteohub,2013-06-22 10:22:00,
2013-06-22 06:27:00,64.2,59.5,30.27,WSW,248,7.0,9.0,85,0.00,,,0.00,meteohub,2013-06-22 10:27:00,
2013-06-22 06:32:00,64.2,59.5,30.27,West,270,10.0,10.0,85,0.00,,,0.00,meteohub,2013-06-22 10:32:00,
2013-06-22 06:37:00,64.4,59.7,30.27,WSW,248,6.0,10.0,85,0.00,,,0.00,meteohub,2013-06-22 10:37:00,
2013-06-22 06:42:00,64.6,59.9,30.27,WSW,248,9.0,10.0,85,0.00,,,0.00,meteohub,2013-06-22 10:42:00,
2013-06-22 06:47:00,64.9,60.3,30.26,WNW,293,8.0,10.0,85,0.00,,,0.00,meteohub,2013-06-22 10:47:00,
2013-06-22 06:52:00,64.9,60.3,30.26,South,180,10.0,10.0,85,0.00,,,0.00,meteohub,2013-06-22 10:52:00,
2013-06-22 06:57:00,65.1,60.4,30.26,West,270,11.0,11.0,85,0.00,,,0.00,meteohub,2013-06-22 10:57:00,
2013-06-22 07:02:00,65.3,60.6,30.26,WNW,293,9.0,11.0,85,0.00,,,0.00,meteohub,2013-06-22 11:02:00,
2013-06-22 07:07:00,65.3,60.6,30.27,West,270,9.0,11.0,85,0.00,,,0.00,meteohub,2013-06-22 11:07:00,
2013-06-22 07:12:00,65.3,60.6,30.27,West,270,7.0,11.0,85,0.00,,,0.00,meteohub,2013-06-22 11:12:00,
2013-06-22 07:17:00,65.7,61.0,30.27,West,270,9.0,10.0,85,0.00,,,0.00,meteohub,2013-06-22 11:17:00,
2013-06-22 07:22:00,65.7,61.0,30.27,WNW,293,9.0,10.0,85,0.00,,,0.00,meteohub,2013-06-22 11:22:00,
2013-06-22 07:27:00,65.8,60.8,30.27,West,270,6.0,9.0,84,0.00,,,0.00,meteohub,2013-06-22 11:27:00,
2013-06-22 07:32:00,66.0,61.0,30.27,NW,315,9.0,9.0,84,0.00,,,0.00,meteohub,2013-06-22 11:32:00,
2013-06-22 07:37:00,66.0,61.0,30.27,WNW,293,11.0,11.0,84,0.00,,,0.00,meteohub,2013-06-22 11:37:00,
2013-06-22 07:42:00,66.2,61.2,30.27,WNW,293,7.0,11.0,84,0.00,,,0.00,meteohub,2013-06-22 11:42:00,
2013-06-22 07:47:00,66.4,61.3,30.26,West,270,11.0,11.0,84,0.00,,,0.00,meteohub,2013-06-22 11:47:00,
2013-06-22 07:52:00,66.7,61.7,30.26,West,270,9.0,11.0,84,0.00,,,0.00,meteohub,2013-06-22 11:52:00,
2013-06-22 07:57:00,66.6,61.5,30.26,WNW,293,14.0,14.0,84,0.00,,,0.00,meteohub,2013-06-22 11:57:00,
2013-06-22 08:02:00,66.7,61.7,30.26,WSW,248,13.0,14.0,84,0.00,,,0.00,meteohub,2013-06-22 12:02:00,
2013-06-22 08:07:00,66.9,61.9,30.26,WNW,293,10.0,14.0,84,0.00,,,0.00,meteohub,2013-06-22 12:07:00,
2013-06-22 08:12:00,67.1,61.7,30.26,WSW,248,8.0,14.0,83,0.00,,,0.00,meteohub,2013-06-22 12:12:00,
2013-06-22 08:17:00,67.1,61.7,30.26,WNW,293,11.0,13.0,83,0.00,,,0.00,meteohub,2013-06-22 12:17:00,
2013-06-22 08:22:00,67.3,61.9,30.26,WNW,293,8.0,11.0,83,0.00,,,0.00,meteohub,2013-06-22 12:22:00,
2013-06-22 08:27:00,67.5,62.1,30.27,West,270,13.0,13.0,83,0.00,,,0.00,meteohub,2013-06-22 12:27:00,
2013-06-22 08:32:00,67.6,62.2,30.27,West,270,6.0,13.0,83,0.00,,,0.00,meteohub,2013-06-22 12:32:00,
2013-06-22 08:37:00,67.6,62.2,30.27,WSW,248,9.0,13.0,83,0.00,,,0.00,meteohub,2013-06-22 12:37:00,
2013-06-22 08:42:00,68.0,62.2,30.27,ENE,68,7.0,13.0,82,0.00,,,0.00,meteohub,2013-06-22 12:42:00,
2013-06-22 08:47:00,68.2,62.4,30.27,NW,315,5.0,9.0,82,0.00,,,0.00,meteohub,2013-06-22 12:47:00,
2013-06-22 08:52:00,68.2,62.4,30.27,West,270,7.0,9.0,82,0.00,,,0.00,meteohub,2013-06-22 12:52:00,
2013-06-22 08:57:00,68.4,62.6,30.27,West,270,5.0,9.0,82,0.00,,,0.00,meteohub,2013-06-22 12:57:00,
2013-06-22 09:02:00,68.5,62.8,30.27,NW,315,5.0,9.0,82,0.00,,,0.00,meteohub,2013-06-22 13:02:00,
2013-06-22 09:07:00,68.7,62.6,30.27,WNW,293,10.0,10.0,81,0.00,,,0.00,meteohub,2013-06-22 13:07:00,
2013-06-22 09:12:00,68.7,62.6,30.27,West,270,9.0,10.0,81,0.00,,,0.00,meteohub,2013-06-22 13:12:00,
2013-06-22 09:17:00,68.7,62.2,30.27,WSW,248,8.0,10.0,80,0.00,,,0.00,meteohub,2013-06-22 13:17:00,
2013-06-22 09:22:00,69.3,62.8,30.27,WSW,248,10.0,11.0,80,0.00,,,0.00,meteohub,2013-06-22 13:22:00,
2013-06-22 09:27:00,69.3,62.8,30.26,West,270,9.0,11.0,80,0.00,,,0.00,meteohub,2013-06-22 13:27:00,
2013-06-22 09:32:00,69.1,62.6,30.26,West,270,6.0,11.0,80,0.00,,,0.00,meteohub,2013-06-22 13:32:00,
2013-06-22 09:37:00,69.3,62.8,30.26,NNW,338,6.0,10.0,80,0.00,,,0.00,meteohub,2013-06-22 13:37:00,
2013-06-22 09:42:00,69.6,63.1,30.26,NW,315,6.0,9.0,80,0.00,,,0.00,meteohub,2013-06-22 13:42:00,
2013-06-22 09:47:00,69.6,62.4,30.27,NW,315,5.0,10.0,78,0.00,,,0.00,meteohub,2013-06-22 13:47:00,
2013-06-22 09:52:00,70.0,62.8,30.27,NW,315,9.0,10.0,78,0.00,,,0.00,meteohub,2013-06-22 13:52:00,
2013-06-22 09:57:00,70.0,62.8,30.27,NW,315,6.0,11.0,78,0.00,,,0.00,meteohub,2013-06-22 13:57:00,
2013-06-22 10:02:00,70.2,62.6,30.27,NW,315,8.0,11.0,77,0.00,,,0.00,meteohub,2013-06-22 14:02:00,
2013-06-22 10:07:00,70.2,61.9,30.27,NW,315,9.0,9.0,75,0.00,,,0.00,meteohub,2013-06-22 14:07:00,
2013-06-22 10:12:00,70.2,61.9,30.27,NW,315,7.0,10.0,75,0.00,,,0.00,meteohub,2013-06-22 14:12:00,
2013-06-22 10:17:00,70.2,62.2,30.27,NNW,338,9.0,10.0,76,0.00,,,0.00,meteohub,2013-06-22 14:17:00,
2013-06-22 10:22:00,70.3,62.1,30.27,NW,315,9.0,10.0,75,0.00,,,0.00,meteohub,2013-06-22 14:22:00,
2013-06-22 10:27:00,70.7,62.8,30.28,WNW,293,7.0,12.0,76,0.00,,,0.00,meteohub,2013-06-22 14:27:00,
2013-06-22 10:32:00,70.9,63.0,30.28,WSW,248,9.0,12.0,76,0.00,,,0.00,meteohub,2013-06-22 14:32:00,
2013-06-22 10:37:00,70.9,62.2,30.28,NW,315,11.0,11.0,74,0.00,,,0.00,meteohub,2013-06-22 14:37:00,
2013-06-22 10:42:00,71.1,61.9,30.28,NW,315,8.0,11.0,73,0.00,,,0.00,meteohub,2013-06-22 14:42:00,
2013-06-22 10:47:00,71.2,61.3,30.27,North,0,4.0,11.0,71,0.00,,,0.00,meteohub,2013-06-22 14:47:00,
2013-06-22 10:52:00,71.4,61.2,30.27,West,270,8.0,11.0,70,0.00,,,0.00,meteohub,2013-06-22 14:52:00,
2013-06-22 10:57:00,71.4,61.2,30.27,NW,315,9.0,9.0,70,0.00,,,0.00,meteohub,2013-06-22 14:57:00,
2013-06-22 11:02:00,71.8,61.9,30.29,NW,315,9.0,9.0,71,0.00,,,0.00,meteohub,2013-06-22 15:02:00,
2013-06-22 11:08:00,71.8,61.0,30.29,NW,315,10.0,10.0,69,0.00,,,0.00,meteohub,2013-06-22 15:08:00,
2013-06-22 11:13:00,72.1,60.6,30.29,NNW,338,8.0,10.0,67,0.00,,,0.00,meteohub,2013-06-22 15:13:00,
2013-06-22 11:18:00,71.8,60.3,30.29,NNW,338,10.0,10.0,67,0.00,,,0.00,meteohub,2013-06-22 15:18:00,
2013-06-22 11:23:00,72.1,60.1,30.29,NW,315,4.0,10.0,66,0.00,,,0.00,meteohub,2013-06-22 15:23:00,
2013-06-22 11:28:00,72.1,59.4,30.29,NW,315,14.0,14.0,64,0.00,,,0.00,meteohub,2013-06-22 15:28:00,
2013-06-22 11:33:00,72.1,59.7,30.29,NW,315,9.0,14.0,65,0.00,,,0.00,meteohub,2013-06-22 15:33:00,
2013-06-22 11:38:00,72.1,59.7,30.29,NNW,338,12.0,14.0,65,0.00,,,0.00,meteohub,2013-06-22 15:38:00,
2013-06-22 11:43:00,72.3,59.9,30.29,NNW,338,9.0,14.0,65,0.00,,,0.00,meteohub,2013-06-22 15:43:00,
2013-06-22 11:48:00,72.5,60.1,30.29,NW,315,9.0,13.0,65,0.00,,,0.00,meteohub,2013-06-22 15:48:00,
2013-06-22 11:53:00,72.1,59.7,30.29,NNW,338,9.0,13.0,65,0.00,,,0.00,meteohub,2013-06-22 15:53:00,
2013-06-22 11:58:00,71.8,59.7,30.29,NNW,338,9.0,13.0,66,0.00,,,0.00,meteohub,2013-06-22 15:58:00,
2013-06-22 12:04:00,72.1,61.0,30.29,NW,315,9.0,11.0,68,0.00,,,0.00,meteohub,2013-06-22 16:04:00,
2013-06-22 12:09:00,72.1,61.0,30.29,NW,315,9.0,11.0,68,0.00,,,0.00,meteohub,2013-06-22 16:09:00,
2013-06-22 12:14:00,72.1,61.0,30.29,NW,315,9.0,11.0,68,0.00,,,0.00,meteohub,2013-06-22 16:14:00,
2013-06-22 12:19:00,73.0,59.7,30.29,NW,315,9.0,9.0,63,0.00,,,0.00,meteohub,2013-06-22 16:19:00,
2013-06-22 12:24:00,73.2,60.3,30.27,NW,315,9.0,9.0,64,0.00,,,0.00,meteohub,2013-06-22 16:24:00,
2013-06-22 12:29:00,73.4,60.4,30.27,NW,315,9.0,9.0,64,0.00,,,0.00,meteohub,2013-06-22 16:29:00,
2013-06-22 12:34:00,73.6,60.3,30.27,North,-999,-999.0,9.0,63,0.00,,,0.00,meteohub,2013-06-22 16:34:00,
2013-06-22 12:39:00,73.9,60.6,30.27,North,-999,-999.0,9.0,63,0.00,,,0.00,meteohub,2013-06-22 16:39:00,
2013-06-22 12:44:00,73.8,59.5,30.28,North,-999,-999.0,9.0,61,0.00,,,0.00,meteohub,2013-06-22 16:44:00,
2013-06-22 12:49:00,74.1,59.4,30.28,North,-999,-999.0,-999.0,60,0.00,,,0.00,meteohub,2013-06-22 16:49:00,
2013-06-22 12:55:00,74.3,59.5,30.28,North,-999,-999.0,-999.0,60,0.00,,,0.00,meteohub,2013-06-22 16:55:00,
2013-06-22 13:00:00,74.3,59.0,30.28,North,-999,-999.0,-999.0,59,0.00,,,0.00,meteohub,2013-06-22 17:00:00,
2013-06-22 13:05:00,74.3,59.5,30.27,North,-999,-999.0,-999.0,60,0.00,,,0.00,meteohub,2013-06-22 17:05:00,
2013-06-22 13:10:00,74.5,59.2,30.27,North,-999,-999.0,-999.0,59,0.00,,,0.00,meteohub,2013-06-22 17:10:00,
2013-06-22 13:15:00,74.7,59.4,30.27,North,-999,-999.0,-999.0,59,0.00,,,0.00,meteohub,2013-06-22 17:15:00,
2013-06-22 13:20:00,75.0,60.6,30.27,North,-999,-999.0,-999.0,61,0.00,,,0.00,meteohub,2013-06-22 17:20:00,
2013-06-22 13:25:00,75.4,61.9,30.26,North,-999,-999.0,-999.0,63,0.00,,,0.00,meteohub,2013-06-22 17:25:00,
2013-06-22 13:30:00,75.9,61.9,30.26,North,-999,-999.0,-999.0,62,0.00,,,0.00,meteohub,2013-06-22 17:30:00,
2013-06-22 13:35:00,76.1,61.7,30.26,North,-999,-999.0,-999.0,61,0.00,,,0.00,meteohub,2013-06-22 17:35:00,
2013-06-22 13:41:00,76.6,62.6,30.26,North,-999,-999.0,-999.0,62,0.00,,,0.00,meteohub,2013-06-22 17:41:00,
2013-06-22 13:46:00,77.2,63.1,30.26,North,-999,-999.0,-999.0,62,0.00,,,0.00,meteohub,2013-06-22 17:46:00,
2013-06-22 13:51:00,77.7,64.0,30.26,North,-999,-999.0,-999.0,63,0.00,,,0.00,meteohub,2013-06-22 17:51:00,
2013-06-22 13:56:00,78.4,65.3,30.26,North,-999,-999.0,-999.0,64,0.00,,,0.00,meteohub,2013-06-22 17:56:00,
2013-06-22 14:01:00,78.8,65.1,30.26,North,-999,-999.0,-999.0,63,0.00,,,0.00,meteohub,2013-06-22 18:01:00,
2013-06-22 14:06:00,79.2,64.9,30.25,North,-999,-999.0,-999.0,62,0.00,,,0.00,meteohub,2013-06-22 18:06:00,
2013-06-22 14:11:00,79.5,65.3,30.25,North,-999,-999.0,-999.0,62,0.00,,,0.00,meteohub,2013-06-22 18:11:00,
2013-06-22 14:16:00,79.7,65.5,30.25,North,-999,-999.0,-999.0,62,0.00,,,0.00,meteohub,2013-06-22 18:16:00,
2013-06-22 14:21:00,79.5,63.9,30.25,North,-999,-999.0,-999.0,59,0.00,,,0.00,meteohub,2013-06-22 18:21:00,
2013-06-22 14:26:00,79.2,62.6,30.26,North,-999,-999.0,-999.0,57,0.00,,,0.00,meteohub,2013-06-22 18:26:00,
2013-06-22 14:31:00,78.8,62.8,30.26,North,-999,-999.0,-999.0,58,0.00,,,0.00,meteohub,2013-06-22 18:31:00,
2013-06-22 14:36:00,78.6,63.1,30.26,North,-999,-999.0,-999.0,59,0.00,,,0.00,meteohub,2013-06-22 18:36:00,
2013-06-22 14:42:00,78.6,63.5,30.26,North,-999,-999.0,-999.0,60,0.00,,,0.00,meteohub,2013-06-22 18:42:00,
2013-06-22 14:47:00,78.6,64.0,30.26,North,-999,-999.0,-999.0,61,0.00,,,0.00,meteohub,2013-06-22 18:47:00,
2013-06-22 14:52:00,78.6,64.0,30.26,North,-999,-999.0,-999.0,61,0.00,,,0.00,meteohub,2013-06-22 18:52:00,
2013-06-22 14:57:00,78.1,64.0,30.26,North,-999,-999.0,-999.0,62,0.00,,,0.00,meteohub,2013-06-22 18:57:00,
2013-06-22 15:02:00,78.1,64.0,30.26,North,-999,-999.0,-999.0,62,0.00,,,0.00,meteohub,2013-06-22 19:02:00,
2013-06-22 15:07:00,77.7,63.1,30.24,North,-999,-999.0,-999.0,61,0.00,,,0.00,meteohub,2013-06-22 19:07:00,
2013-06-22 15:12:00,77.5,63.0,30.24,North,-999,-999.0,-999.0,61,0.00,,,0.00,meteohub,2013-06-22 19:12:00,
2013-06-22 15:17:00,77.5,62.6,30.24,North,-999,-999.0,-999.0,60,0.00,,,0.00,meteohub,2013-06-22 19:17:00,
2013-06-22 15:22:00,77.7,61.7,30.24,North,-999,-999.0,-999.0,58,0.00,,,0.00,meteohub,2013-06-22 19:22:00,
2013-06-22 15:27:00,77.9,61.5,30.23,North,-999,-999.0,-999.0,57,0.00,,,0.00,meteohub,2013-06-22 19:27:00,
2013-06-22 15:32:00,77.9,61.0,30.23,North,-999,-999.0,-999.0,56,0.00,,,0.00,meteohub,2013-06-22 19:32:00,
2013-06-22 15:37:00,77.7,61.3,30.23,North,-999,-999.0,-999.0,57,0.00,,,0.00,meteohub,2013-06-22 19:37:00,
2013-06-22 15:42:00,77.7,61.7,30.23,North,-999,-999.0,-999.0,58,0.00,,,0.00,meteohub,2013-06-22 19:42:00,
2013-06-22 15:47:00,77.9,62.4,30.22,North,-999,-999.0,-999.0,59,0.00,,,0.00,meteohub,2013-06-22 19:47:00,
2013-06-22 15:52:00,77.5,62.1,30.22,North,-999,-999.0,-999.0,59,0.00,,,0.00,meteohub,2013-06-22 19:52:00,
2013-06-22 15:57:00,77.5,62.6,30.22,North,-999,-999.0,-999.0,60,0.00,,,0.00,meteohub,2013-06-22 19:57:00,
2013-06-22 16:02:00,77.9,63.3,30.22,North,-999,-999.0,-999.0,61,0.00,,,0.00,meteohub,2013-06-22 20:02:00,
2013-06-22 16:07:00,78.1,63.5,30.22,North,-999,-999.0,-999.0,61,0.00,,,0.00,meteohub,2013-06-22 20:07:00,
2013-06-22 16:12:00,78.3,64.2,30.22,North,-999,-999.0,-999.0,62,0.00,,,0.00,meteohub,2013-06-22 20:12:00,
2013-06-22 16:17:00,78.3,64.2,30.22,North,-999,-999.0,-999.0,62,0.00,,,0.00,meteohub,2013-06-22 20:17:00,
2013-06-22 16:22:00,78.3,64.2,30.22,North,-999,-999.0,-999.0,62,0.00,,,0.00,meteohub,2013-06-22 20:22:00,
2013-06-22 16:27:00,78.3,64.2,30.21,North,-999,-999.0,-999.0,62,0.00,,,0.00,meteohub,2013-06-22 20:27:00,
2013-06-22 16:32:00,78.6,64.6,30.21,North,-999,-999.0,-999.0,62,0.00,,,0.00,meteohub,2013-06-22 20:32:00,
2013-06-22 16:37:00,78.8,65.1,30.21,North,-999,-999.0,-999.0,63,0.00,,,0.00,meteohub,2013-06-22 20:37:00,
2013-06-22 16:42:00,78.6,64.0,30.21,North,-999,-999.0,-999.0,61,0.00,,,0.00,meteohub,2013-06-22 20:42:00,
2013-06-22 16:47:00,78.6,64.0,30.21,North,-999,-999.0,-999.0,61,0.00,,,0.00,meteohub,2013-06-22 20:47:00,
2013-06-22 16:52:00,78.4,63.3,30.21,North,-999,-999.0,-999.0,60,0.00,,,0.00,meteohub,2013-06-22 20:52:00,
2013-06-22 16:57:00,78.8,63.3,30.21,North,-999,-999.0,-999.0,59,0.00,,,0.00,meteohub,2013-06-22 20:57:00,
2013-06-22 17:02:00,78.3,62.2,30.21,North,-999,-999.0,-999.0,58,0.00,,,0.00,meteohub,2013-06-22 21:02:00,
2013-06-22 17:07:00,77.9,62.4,30.21,North,-999,-999.0,-999.0,59,0.00,,,0.00,meteohub,2013-06-22 21:07:00,
2013-06-22 17:12:00,77.7,62.2,30.21,North,-999,-999.0,-999.0,59,0.00,,,0.00,meteohub,2013-06-22 21:12:00,
2013-06-22 17:17:00,77.4,62.4,30.21,North,-999,-999.0,-999.0,60,0.00,,,0.00,meteohub,2013-06-22 21:17:00,
2013-06-22 17:22:00,77.2,62.6,30.21,North,-999,-999.0,-999.0,61,0.00,,,0.00,meteohub,2013-06-22 21:22:00,
2013-06-22 17:27:00,76.8,62.8,30.21,North,-999,-999.0,-999.0,62,0.00,,,0.00,meteohub,2013-06-22 21:27:00,
2013-06-22 17:32:00,77.0,63.0,30.21,North,-999,-999.0,-999.0,62,0.00,,,0.00,meteohub,2013-06-22 21:32:00,
2013-06-22 17:37:00,77.0,63.5,30.21,North,-999,-999.0,-999.0,63,0.00,,,0.00,meteohub,2013-06-22 21:37:00,
2013-06-22 17:42:00,77.2,63.1,30.21,North,-999,-999.0,-999.0,62,0.00,,,0.00,meteohub,2013-06-22 21:42:00,
2013-06-22 17:47:00,77.2,63.7,30.20,North,-999,-999.0,-999.0,63,0.00,,,0.00,meteohub,2013-06-22 21:47:00,
2013-06-22 17:52:00,77.2,63.7,30.20,North,-999,-999.0,-999.0,63,0.00,,,0.00,meteohub,2013-06-22 21:52:00,
2013-06-22 17:57:00,77.2,64.0,30.20,North,-999,-999.0,-999.0,64,0.00,,,0.00,meteohub,2013-06-22 21:57:00,
2013-06-22 18:02:00,77.2,64.0,30.20,North,-999,-999.0,-999.0,64,0.00,,,0.00,meteohub,2013-06-22 22:02:00,
2013-06-22 18:07:00,76.8,63.7,30.20,North,-999,-999.0,-999.0,64,0.00,,,0.00,meteohub,2013-06-22 22:07:00,
2013-06-22 18:12:00,76.3,63.7,30.20,North,-999,-999.0,-999.0,65,0.00,,,0.00,meteohub,2013-06-22 22:12:00,
2013-06-22 18:17:00,75.7,63.5,30.20,North,-999,-999.0,-999.0,66,0.00,,,0.00,meteohub,2013-06-22 22:17:00,
2013-06-22 18:22:00,75.0,63.0,30.20,North,-999,-999.0,-999.0,66,0.00,,,0.00,meteohub,2013-06-22 22:22:00,
2013-06-22 18:27:00,73.9,62.2,30.20,North,-999,-999.0,-999.0,67,0.00,,,0.00,meteohub,2013-06-22 22:27:00,
2013-06-22 18:32:00,73.8,62.6,30.20,North,-999,-999.0,-999.0,68,0.00,,,0.00,meteohub,2013-06-22 22:32:00,
2013-06-22 18:37:00,73.6,62.8,30.20,North,-999,-999.0,-999.0,69,0.00,,,0.00,meteohub,2013-06-22 22:37:00,
2013-06-22 18:42:00,73.2,62.8,30.20,North,-999,-999.0,-999.0,70,0.00,,,0.00,meteohub,2013-06-22 22:42:00,
2013-06-22 18:47:00,72.9,62.4,30.19,North,-999,-999.0,-999.0,70,0.00,,,0.00,meteohub,2013-06-22 22:47:00,
2013-06-22 18:52:00,72.5,62.2,30.19,North,-999,-999.0,-999.0,70,0.00,,,0.00,meteohub,2013-06-22 22:52:00,
2013-06-22 18:57:00,72.3,62.4,30.19,North,-999,-999.0,-999.0,71,0.00,,,0.00,meteohub,2013-06-22 22:57:00,
2013-06-22 19:02:00,72.1,62.6,30.19,North,-999,-999.0,-999.0,72,0.00,,,0.00,meteohub,2013-06-22 23:02:00,
2013-06-22 19:07:00,71.6,62.1,30.18,North,-999,-999.0,-999.0,72,0.00,,,0.00,meteohub,2013-06-22 23:07:00,
2013-06-22 19:12:00,71.2,62.1,30.18,North,-999,-999.0,-999.0,73,0.00,,,0.00,meteohub,2013-06-22 23:12:00,
2013-06-22 19:17:00,70.9,61.9,30.18,North,-999,-999.0,-999.0,73,0.00,,,0.00,meteohub,2013-06-22 23:17:00,
2013-06-22 19:22:00,70.3,61.7,30.18,North,-999,-999.0,-999.0,74,0.00,,,0.00,meteohub,2013-06-22 23:22:00,
2013-06-22 19:27:00,70.2,61.9,30.18,North,-999,-999.0,-999.0,75,0.00,,,0.00,meteohub,2013-06-22 23:27:00,
2013-06-22 19:32:00,70.0,61.7,30.18,North,-999,-999.0,-999.0,75,0.00,,,0.00,meteohub,2013-06-22 23:32:00,
2013-06-22 19:37:00,69.6,61.7,30.18,North,-999,-999.0,-999.0,76,0.00,,,0.00,meteohub,2013-06-22 23:37:00,
2013-06-22 19:42:00,69.6,61.7,30.18,North,-999,-999.0,-999.0,76,0.00,,,0.00,meteohub,2013-06-22 23:42:00,
2013-06-22 19:48:00,69.4,61.9,30.18,North,-999,-999.0,-999.0,77,0.00,,,0.00,meteohub,2013-06-22 23:48:00,
2013-06-22 19:53:00,69.3,61.7,30.18,North,-999,-999.0,-999.0,77,0.00,,,0.00,meteohub,2013-06-22 23:53:00,
2013-06-22 19:58:00,68.9,61.3,30.18,North,-999,-999.0,-999.0,77,0.00,,,0.00,meteohub,2013-06-22 23:58:00,
2013-06-22 20:03:00,68.5,61.3,30.18,North,-999,-999.0,-999.0,78,0.00,,,0.00,meteohub,2013-06-23 00:03:00,
2013-06-22 20:08:00,68.5,61.7,30.18,North,-999,-999.0,-999.0,79,0.00,,,0.00,meteohub,2013-06-23 00:08:00,
2013-06-22 20:13:00,68.2,61.3,30.18,North,-999,-999.0,-999.0,79,0.00,,,0.00,meteohub,2013-06-23 00:13:00,
2013-06-22 20:18:00,67.8,61.0,30.18,North,-999,-999.0,-999.0,79,0.00,,,0.00,meteohub,2013-06-23 00:18:00,
2013-06-22 20:23:00,67.6,61.0,30.18,North,-999,-999.0,-999.0,79,0.00,,,0.00,meteohub,2013-06-23 00:23:00,
2013-06-22 20:29:00,67.8,61.3,30.18,North,-999,-999.0,-999.0,80,0.00,,,0.00,meteohub,2013-06-23 00:29:00,
2013-06-22 20:35:00,67.3,61.0,30.18,North,-999,-999.0,-999.0,80,0.00,,,0.00,meteohub,2013-06-23 00:35:00,
2013-06-22 20:40:00,67.3,61.2,30.18,North,-999,-999.0,-999.0,81,0.00,,,0.00,meteohub,2013-06-23 00:40:00,
2013-06-22 20:44:00,67.1,61.2,30.18,North,-999,-999.0,-999.0,81,0.00,,,0.00,meteohub,2013-06-23 00:44:00,
2013-06-22 20:47:00,67.1,61.2,30.18,North,-999,-999.0,-999.0,81,0.00,,,0.00,meteohub,2013-06-23 00:47:00,
2013-06-22 20:52:00,66.7,60.8,30.18,North,-999,-999.0,-999.0,81,0.00,,,0.00,meteohub,2013-06-23 00:52:00,
2013-06-22 20:59:00,66.6,61.0,30.18,SW,225,11.0,-999.0,82,0.00,,,0.00,meteohub,2013-06-23 00:59:00,
2013-06-22 21:05:00,66.7,61.0,30.17,SSW,203,10.0,-999.0,82,0.00,,,0.00,meteohub,2013-06-23 01:05:00,
2013-06-22 21:10:00,66.4,61.0,30.17,SW,225,13.0,13.0,83,0.00,,,0.00,meteohub,2013-06-23 01:10:00,
2013-06-22 21:15:00,66.4,61.0,30.17,SW,225,9.0,13.0,83,0.00,,,0.00,meteohub,2013-06-23 01:15:00,
2013-06-22 21:20:00,66.0,61.0,30.17,SW,225,10.0,13.0,84,0.00,,,0.00,meteohub,2013-06-23 01:20:00,
2013-06-22 21:25:00,66.0,61.0,30.18,WSW,248,10.0,13.0,84,0.00,,,0.00,meteohub,2013-06-23 01:25:00,
2013-06-22 21:31:00,66.0,61.0,30.18,WSW,248,12.0,14.0,84,0.00,,,0.00,meteohub,2013-06-23 01:31:00,
2013-06-22 21:36:00,66.0,61.0,30.18,SW,225,7.0,14.0,84,0.00,,,0.00,meteohub,2013-06-23 01:36:00,
2013-06-22 21:41:00,65.8,61.2,30.18,WSW,248,9.0,14.0,85,0.00,,,0.00,meteohub,2013-06-23 01:41:00,
2013-06-22 21:46:00,65.7,61.0,30.20,West,270,9.0,12.0,85,0.00,,,0.00,meteohub,2013-06-23 01:46:00,
2013-06-22 21:51:00,65.7,61.3,30.20,West,270,6.0,10.0,86,0.00,,,0.00,meteohub,2013-06-23 01:51:00,
2013-06-22 21:57:00,65.7,61.3,30.20,West,270,9.0,9.0,86,0.00,,,0.00,meteohub,2013-06-23 01:57:00,
2013-06-22 22:02:00,65.7,61.3,30.20,West,270,10.0,10.0,86,0.00,,,0.00,meteohub,2013-06-23 02:02:00,
2013-06-22 22:07:00,65.7,61.7,30.20,WNW,293,9.0,10.0,87,0.00,,,0.00,meteohub,2013-06-23 02:07:00,
2013-06-22 22:12:00,65.5,61.5,30.20,West,270,8.0,11.0,87,0.00,,,0.00,meteohub,2013-06-23 02:12:00,
2013-06-22 22:17:00,65.5,61.5,30.20,WSW,248,9.0,11.0,87,0.00,,,0.00,meteohub,2013-06-23 02:17:00,
2013-06-22 22:22:00,65.7,61.7,30.20,WNW,293,4.0,11.0,87,0.00,,,0.00,meteohub,2013-06-23 02:22:00,
2013-06-22 22:27:00,65.7,61.7,30.20,NNE,23,0.0,9.0,87,0.00,,,0.00,meteohub,2013-06-23 02:27:00,
2013-06-22 22:32:00,65.7,61.7,30.20,NNW,338,0.0,9.0,87,0.00,,,0.00,meteohub,2013-06-23 02:32:00,
2013-06-22 22:37:00,65.7,61.7,30.20,West,270,0.0,4.0,87,0.00,,,0.00,meteohub,2013-06-23 02:37:00,
2013-06-22 22:42:00,65.7,61.7,30.20,WSW,248,0.0,2.0,87,0.00,,,0.00,meteohub,2013-06-23 02:42:00,
2013-06-22 22:47:00,65.5,61.5,30.20,WSW,248,0.0,2.0,87,0.00,,,0.00,meteohub,2013-06-23 02:47:00,
2013-06-22 22:52:00,65.3,61.3,30.20,WSW,248,0.0,0.0,87,0.00,,,0.00,meteohub,2013-06-23 02:52:00,
2013-06-22 22:57:00,65.3,61.3,30.20,ESE,113,0.0,3.0,87,0.00,,,0.00,meteohub,2013-06-23 02:57:00,
2013-06-22 23:02:00,65.1,61.2,30.21,SE,135,2.0,3.0,87,0.00,,,0.00,meteohub,2013-06-23 03:02:00,
2013-06-22 23:07:00,65.1,61.2,30.21,SSE,158,0.0,2.0,87,0.00,,,0.00,meteohub,2013-06-23 03:07:00,
2013-06-22 23:13:00,64.9,61.0,30.21,West,270,5.0,5.0,87,0.00,,,0.00,meteohub,2013-06-23 03:13:00,
2013-06-22 23:18:00,65.1,61.2,30.21,WNW,293,3.0,3.0,87,0.00,,,0.00,meteohub,2013-06-23 03:18:00,
2013-06-22 23:23:00,65.1,61.2,30.21,WSW,248,2.0,5.0,87,0.00,,,0.00,meteohub,2013-06-23 03:23:00,
2013-06-22 23:28:00,65.1,61.2,30.21,WSW,248,4.0,5.0,87,0.00,,,0.00,meteohub,2013-06-23 03:28:00,
2013-06-22 23:33:00,65.1,61.2,30.21,South,180,3.0,5.0,87,0.00,,,0.00,meteohub,2013-06-23 03:33:00,
2013-06-22 23:38:00,64.9,61.0,30.21,West,270,6.0,6.0,87,0.00,,,0.00,meteohub,2013-06-23 03:38:00,
2013-06-22 23:43:00,65.1,61.2,30.21,WSW,248,7.0,7.0,87,0.00,,,0.00,meteohub,2013-06-23 03:43:00,
2013-06-22 23:48:00,65.3,61.7,30.21,West,270,8.0,8.0,88,0.00,,,0.00,meteohub,2013-06-23 03:48:00,
2013-06-22 23:53:00,65.3,61.7,30.21,WNW,293,5.0,8.0,88,0.00,,,0.00,meteohub,2013-06-23 03:53:00,
2013-06-22 23:59:00,65.3,61.7,30.21,West,270,4.0,8.0,88,0.00,,,0.00,meteohub,2013-06-23 03:59:00,